Location: Usti nad Labem
(50.6670°N, 14.0330°E)
Time: 13:10:56
(UTC+02:00)

ISS - Visible Passes

Search period start: 25 October 2014 00:00
Search period end: 03 November 2014 23:00
Orbit: 412 x 416 km, 51.6° (Epoch: 25 October)

Date Brightness Start Highest point End Pass type
(mag) Time Alt. Az. Time Alt. Az. Time Alt. Az.
25 Oct -2.0 18:37:59 10° W 18:41:08 39° SSW 18:44:16 10° SE visible
26 Oct -0.4 18:26:21 10° WSW 18:28:08 14° SW 18:29:55 10° S visible
27 Oct -0.7 17:36:32 10° W 17:39:06 21° SW 17:41:39 10° SSE visible
